Tracking 31027 objects as of 19-Jul-2025
HD Live streaming from Space Station
objects crossing your sky now

ARIANE 44LP DEB

Track ARIANE 44LP DEB now!


NORAD ID: 26794
Int'l Code: 1991-015L
Perigee: 604.2 km
Apogee: 28,246.2 km
Inclination: 7.5 °
Period: 497.4 minutes
Semi major axis: 20796 km
RCS: 0.5191 m2 (medium)
Launch date: March 2, 1991
Source: France (FR)
Launch site: FRENCH GUIANA (FRGUI)

Note: This is SATELLITE DEBRIS
Your satellite tracking list
CREW DRAGON DEMO-2 DEB
Track 1 satellite(s)




NASA's NSSDC Master Catalog

Two Line Element Set (TLE):
1 26794U 91015L   25199.31804524  .00000231  00000-0  24777-2 0  9992
2 26794   7.5018 186.9696 6645914 261.8995 191.8376  2.89485140118489
Source of the keplerian elements: AFSPC